Wind_Speed
43 43 41 40 39 38 35 34 32 30 29 29 29 29 28 28 28 28 27 27 26 24 23 23 23 23 22 21 21 21 21 21 20 19 18 18 19 19 18 18 18 17 16 15 15 13 13 13 13 12 12 12 12 12 12 13 13 13 13 14 14 14 15 16 18 21 21 19 20 20 18 18 18 18 18 19 19 20 20 20 20 21 22 23 24
43 43 42 41 40 39 37 35 33 32 30 29 29 28 27 27 27 27 28 28 27 25 24 24 24 24 24 23 23 23 23 23 21 21 20 20 20 20 20 20 20 19 17 16 16 15 15 15 14 14 13 14 13 13 13 13 13 13 14 15 15 15 16 18 19 22 23 22 21 21 21 21 22 21 21 21 21 22 23 24 24 25 25 26 27
43 43 42 42 41 39 38 36 35 33 32 31 30 28 27 26 26 27 27 28 27 26 26 25 25 26 25 25 25 24 24 23 22 22 22 22 22 21 21 21 21 20 19 18 17 17 17 17 16 15 15 15 14 14 14 14 14 15 15 15 16 16 17 19 19 20 21 22 21 21 21 22 24 24 25 25 25 25 25 26 26 27 27 28 29
42 43 42 41 41 39 38 37 36 34 33 33 31 29 28 27 26 26 26 26 27 27 26 26 26 27 27 27 26 25 25 24 23 24 24 24 24 23 22 22 22 21 20 19 18 18 18 18 17 16 16 17 16 15 15 15 16 16 16 16 17 17 16 16 15 15 17 21 22 21 22 23 24 25 26 27 28 28 28 28 27 27 27 27 29
42 43 42 41 41 40 39 38 37 36 35 34 32 31 29 28 27 27 26 26 27 27 27 27 27 28 28 27 27 26 26 25 25 25 25 25 25 24 24 24 23 22 22 21 20 19 19 18 17 17 17 17 17 17 16 16 17 17 17 17 18 17 15 15 15 14 14 18 21 21 23 24 26 26 27 27 27 28 28 27 26 27 27 27 28
41 43 42 41 41 40 40 39 38 37 36 34 33 31 30 29 29 28 27 26 27 27 28 28 28 28 28 27 27 27 27 27 26 26 26 26 26 26 25 25 24 24 23 22 22 21 20 20 19 19 19 18 18 18 18 17 18 18 19 18 19 20 19 18 19 16 14 16 19 20 20 21 21 23 24 25 26 27 26 23 21 24 27 29 30
42 44 43 41 41 41 41 40 40 38 37 35 33 32 31 30 30 29 27 27 27 28 28 28 29 29 28 28 28 28 28 28 28 28 27 26 27 26 26 26 25 25 24 24 23 23 22 21 21 21 20 19 19 19 19 19 19 20 20 21 21 21 21 19 18 17 16 17 19 18 17 17 18 20 23 25 25 26 24 19 19 23 27 30 31
44 45 43 42 42 42 42 41 41 39 38 35 34 34 32 31 31 30 28 28 28 29 29 29 29 29 29 28 28 28 29 29 30 30 29 28 28 27 27 26 26 26 26 25 25 25 24 23 23 22 21 20 19 20 21 21 21 21 21 21 21 21 21 19 17 16 16 17 17 16 16 17 18 20 21 21 22 24 21 18 20 25 30 33 35
45 45 44 43 43 42 42 42 41 40 38 36 36 35 34 33 32 31 30 29 29 29 28 28 29 29 28 28 28 29 30 30 31 31 31 30 29 28 28 28 27 27 27 27 26 26 25 24 24 24 23 22 21 21 22 22 22 22 22 22 22 21 20 18 16 14 14 14 15 15 16 17 17 17 19 19 21 23 20 18 21 26 31 37 39
45 45 44 44 43 42 42 42 41 40 39 38 36 36 35 33 32 32 31 30 29 29 29 29 28 28 28 28 29 29 30 31 31 32 32 31 30 30 29 29 29 28 28 28 27 27 26 25 25 26 25 24 23 23 23 23 23 23 22 22 23 22 20 18 18 17 15 14 15 15 16 17 16 17 19 21 22 21 19 19 23 27 33 41 42
46 45 44 44 43 42 42 42 42 41 40 39 37 36 35 34 34 33 32 31 30 30 30 30 29 28 29 29 29 30 31 31 31 31 31 31 31 31 31 31 30 30 30 29 28 28 28 27 27 28 27 26 26 25 25 25 25 24 24 24 24 24 23 22 22 21 17 16 16 16 16 17 17 17 19 21 20 20 20 21 24 29 34 40 42
47 45 45 44 43 42 41 41 42 42 41 40 38 37 36 36 35 35 33 32 32 31 31 31 31 30 30 30 30 31 32 32 31 30 31 31 31 31 31 32 32 32 31 31 30 30 30 30 30 30 30 29 27 27 26 26 26 26 25 25 25 25 25 25 25 24 21 18 17 16 16 17 17 17 18 19 21 24 28 28 26 29 32 35 39
46 46 45 44 43 41 41 41 42 42 42 41 39 38 37 37 37 35 34 33 33 33 33 33 32 32 32 32 32 32 32 33 32 31 31 31 31 31 32 32 33 33 33 33 32 32 32 32 32 32 32 31 29 28 28 27 28 28 26 26 27 27 27 26 26 26 25 23 22 19 17 16 16 16 17 20 24 28 33 33 31 31 32 34 37
45 46 45 43 42 41 40 41 42 42 42 41 40 39 38 38 37 36 35 35 35 35 35 34 34 33 33 33 33 33 33 34 33 32 32 32 31 31 32 33 34 34 35 34 34 34 34 33 33 33 32 32 31 30 29 28 28 29 28 28 28 28 28 27 27 27 27 27 27 24 20 18 17 17 18 21 24 27 30 33 33 32 34 35 36
44 45 45 43 42 41 41 42 42 42 42 42 41 40 39 39 38 37 37 37 36 36 35 34 34 34 34 34 34 35 35 35 34 33 32 32 32 32 32 33 34 35 35 35 35 35 34 34 34 34 33 33 32 31 30 29 28 28 29 29 29 28 28 27 26 26 26 26 26 24 21 18 18 18 19 19 21 24 27 31 32 32 35 36 37
44 45 44 42 42 42 42 42 42 42 42 42 41 41 40 39 39 38 38 38 37 36 35 34 34 34 34 34 35 35 36 36 36 35 33 33 33 33 33 34 35 36 36 36 36 36 35 35 35 35 34 34 33 32 31 30 28 28 28 28 27 27 26 25 26 26 25 23 21 20 18 17 18 19 20 20 21 22 24 28 30 31 33 36 39
46 45 43 42 42 42 41 41 42 41 41 41 41 41 40 40 39 38 38 38 37 36 35 34 34 34 34 34 34 35 36 36 37 36 35 35 34 34 34 35 35 36 37 37 37 37 37 36 36 36 35 35 34 33 32 30 28 28 28 27 27 26 24 24 24 25 23 21 19 19 19 19 20 21 21 20 19 20 23 27 28 27 28 32 36
45 44 42 41 41 41 40 40 40 40 40 40 41 40 40 39 38 37 36 36 36 36 34 34 34 34 34 34 34 35 35 35 36 36 36 35 35 34 35 35 36 37 37 37 37 38 38 37 37 36 36 35 34 33 32 31 29 28 28 27 26 26 25 23 21 20 19 19 19 20 20 20 20 21 20 19 19 20 23 26 26 25 26 28 32
44 42 41 40 40 39 39 39 38 38 39 40 40 40 39 38 37 36 36 35 36 35 34 34 35 34 34 34 34 34 34 34 35 35 35 35 35 34 34 35 36 37 37 38 38 38 38 38 38 38 37 35 35 34 33 31 29 28 27 26 26 26 25 22 18 16 16 17 18 18 18 19 20 21 22 21 20 22 24 25 25 24 23 24 27
41 40 39 38 39 39 38 37 37 37 38 38 38 38 38 37 37 36 36 36 36 35 34 34 35 35 34 34 33 33 33 33 34 35 34 34 34 34 35 36 37 38 38 38 38 39 39 39 40 39 37 35 34 34 32 30 29 27 26 25 26 25 21 18 16 17 18 19 19 19 19 20 21 21 22 21 20 21 22 24 23 19 18 22 24
39 39 38 38 38 38 37 35 35 35 36 36 36 37 36 36 36 36 35 35 34 34 34 32 31 32 32 32 32 32 32 32 33 34 34 34 34 34 35 37 38 37 37 38 38 38 38 39 39 38 37 35 33 32 31 29 28 27 26 27 27 24 21 18 18 19 20 19 19 20 20 21 21 21 19 18 17 17 17 19 19 18 19 22 23
37 36 36 37 37 36 35 35 34 34 35 34 34 34 34 34 35 34 34 34 33 33 33 31 29 28 27 27 27 28 28 30 32 33 34 33 33 34 35 36 36 35 36 37 36 34 35 35 34 34 34 33 31 29 28 27 27 28 28 28 27 24 23 22 22 21 21 20 20 21 21 22 22 20 16 15 16 15 16 17 18 19 21 21 22
34 34 35 35 36 35 35 34 33 33 34 33 32 33 33 34 34 33 31 30 29 26 26 25 25 24 23 22 21 21 22 24 28 32 33 32 31 33 34 34 33 33 34 33 28 26 27 26 23 26 30 29 26 25 25 26 27 28 28 26 25 24 23 24 24 24 23 22 22 23 23 22 20 17 15 17 18 17 17 18 18 19 21 22 23
32 33 34 34 35 35 35 33 32 32 32 32 32 32 32 32 33 32 28 25 22 20 19 19 19 21 21 21 20 19 20 21 24 28 31 31 30 30 30 30 29 30 31 29 23 19 20 20 19 22 25 24 22 23 25 26 27 27 26 25 24 23 24 24 23 23 23 22 23 24 23 20 16 15 17 19 19 18 18 18 18 19 21 23 24
32 32 34 34 34 34 34 32 31 30 30 30 30 30 30 30 31 29 26 22 19 18 18 18 18 18 19 20 20 19 19 20 21 23 26 28 27 27 26 26 26 26 28 28 24 21 21 22 23 22 22 21 21 22 24 26 26 26 25 24 23 23 23 23 22 22 22 23 24 23 20 17 17 19 20 18 17 18 18 18 19 20 21 23 24
32 32 33 33 33 32 32 31 29 28 28 28 27 27 28 28 28 27 25 23 20 18 18 19 19 18 18 18 19 19 20 20 20 21 23 25 25 24 23 23 24 24 25 26 25 24 23 24 24 23 22 21 21 22 24 25 24 24 24 23 23 22 22 22 22 22 23 24 23 20 18 18 19 20 18 17 17 17 17 18 19 20 21 23 25
30 30 30 31 31 30 30 29 28 27 26 26 26 26 26 27 27 27 27 26 23 20 19 20 20 20 19 18 17 19 21 21 21 21 22 23 23 22 21 21 23 24 25 25 25 24 24 24 24 23 23 22 22 23 24 25 24 24 25 24 23 23 23 23 22 23 24 23 21 19 18 19 18 18 17 16 16 16 17 18 19 19 20 23 25
27 28 28 29 30 30 30 29 27 26 26 26 25 24 25 26 27 27 28 28 27 23 20 21 22 21 20 19 18 19 21 22 22 21 21 20 21 20 19 20 22 24 25 24 23 23 24 25 24 23 23 23 24 24 24 25 26 26 25 25 24 24 24 23 23 23 22 20 19 18 17 17 16 16 16 14 14 15 16 17 18 19 20 22 23
27 28 29 29 30 29 29 29 27 24 23 24 26 25 25 26 26 25 25 25 26 24 23 22 22 21 21 21 21 20 21 21 21 20 20 19 17 17 17 18 19 21 21 21 21 22 24 25 24 24 24 25 25 23 22 25 27 27 26 26 25 24 24 23 23 22 20 17 17 16 16 15 15 15 14 13 14 15 15 16 17 18 19 21 20
27 28 28 29 29 28 28 28 27 24 21 21 25 28 28 27 25 24 23 23 24 25 26 25 23 22 21 21 21 21 20 20 19 18 18 17 15 15 16 16 16 17 18 19 19 22 23 23 22 22 23 25 25 21 19 22 25 26 26 25 24 23 23 21 20 19 17 16 15 15 14 15 15 14 13 13 13 13 14 15 16 17 18 18 16
26 25 25 27 28 28 27 27 27 26 22 19 21 26 28 28 27 25 24 24 23 23 24 25 25 24 23 22 20 20 20 20 19 18 18 17 15 15 16 17 18 18 19 20 21 23 23 21 21 22 23 24 24 21 19 19 22 24 25 24 23 21 19 17 16 16 15 14 14 14 14 15 15 14 13 13 13 13 13 13 14 15 16 15 13
24 22 22 24 26 28 28 28 28 27 23 21 21 23 25 26 28 28 27 27 26 25 24 23 23 23 24 23 21 22 22 21 19 19 19 19 17 16 17 18 19 20 20 22 23 24 22 19 20 23 23 22 21 19 16 16 21 24 24 22 19 17 16 15 15 14 13 13 13 13 14 14 14 14 13 12 12 12 11 11 12 13 14 13 13
20 19 18 19 22 25 26 25 24 22 19 18 19 20 20 20 24 27 29 29 29 28 27 25 23 22 22 22 21 22 23 21 19 18 19 19 19 18 18 18 19 21 22 22 24 25 23 20 19 19 17 17 18 18 16 18 21 22 20 16 15 15 15 14 13 12 12 12 12 13 14 14 14 14 13 12 12 11 10 10 10 11 12 12 11
14 14 13 13 16 19 20 18 17 18 19 18 16 15 16 15 16 21 26 27 27 28 28 26 24 22 21 21 21 21 22 21 20 20 20 20 20 19 19 19 19 20 21 21 22 24 23 20 17 14 13 15 19 22 24 24 22 18 15 13 13 14 14 12 11 11 12 13 13 14 14 14 13 11 10 10 10 10 8 8 8 8 9 9 10
12 14 14 13 12 13 15 15 14 16 19 19 15 13 14 14 14 17 20 22 24 26 27 26 25 23 22 22 22 21 22 22 21 21 21 21 20 19 19 20 20 20 21 22 23 23 21 19 18 19 19 21 22 23 23 21 16 13 13 13 13 13 13 12 11 12 13 13 13 13 13 13 11 9 7 7 9 9 7 6 6 6 6 7 8
10 12 12 12 11 10 12 13 13 12 13 13 12 11 12 13 14 14 15 17 21 23 23 23 22 21 21 21 21 21 21 21 21 21 20 20 19 19 20 21 21 22 24 25 25 25 24 23 24 24 24 23 20 18 17 16 14 14 14 14 14 13 13 12 12 12 12 12 12 12 12 12 10 7 6 7 9 9 8 7 6 6 6 7 7
10 11 10 10 9 9 11 12 12 11 12 13 12 11 12 15 17 16 17 18 19 18 17 17 16 16 18 18 18 18 18 18 19 19 18 18 19 19 20 22 23 24 26 26 25 25 25 24 23 21 19 18 17 16 16 16 14 14 14 14 13 12 11 11 11 11 11 12 12 12 12 11 9 7 6 7 9 9 8 7 7 7 8 9 10
11 12 11 11 9 8 9 11 11 11 12 13 12 11 13 17 20 20 18 17 16 15 15 15 14 14 16 17 16 16 15 16 17 17 16 17 17 16 18 20 22 22 23 23 23 22 21 20 19 18 17 17 17 16 15 14 13 13 13 12 12 11 11 10 10 10 11 11 11 10 10 9 8 7 6 7 8 9 9 8 8 7 8 10 10
5 7 10 11 10 9 9 11 12 12 12 13 13 13 14 17 19 19 17 16 16 16 15 15 14 14 14 14 14 13 12 13 13 13 13 13 14 15 17 18 18 18 19 21 20 18 18 18 18 17 18 17 16 15 14 13 12 11 11 10 10 10 10 10 10 10 10 10 9 8 8 7 6 6 7 7 8 9 9 9 9 9 9 9 10
5 4 8 10 9 9 11 13 13 14 14 14 14 15 15 16 18 17 17 16 17 17 17 16 15 15 14 13 13 12 12 13 14 14 15 15 16 18 19 18 17 18 19 20 19 18 17 17 17 17 17 16 15 15 14 12 11 10 10 9 9 9 9 10 10 9 9 8 8 7 6 7 7 7 7 7 8 9 9 8 9 10 10 10 10
5 2 5 8 8 8 10 12 13 13 14 15 15 16 16 16 16 16 16 16 16 17 17 17 17 16 16 16 16 16 16 16 15 15 16 16 17 19 20 18 18 19 20 20 19 19 18 17 17 16 16 15 14 14 12 11 11 10 10 9 9 7 6 6 6 5 6 6 6 5 5 7 8 7 7 7 9 9 8 8 9 11 11 11 12
3 3 3 4 7 8 10 11 11 11 12 13 14 14 15 15 16 16 17 16 16 17 17 18 18 18 19 19 18 18 17 16 16 16 16 17 18 18 18 16 16 17 19 19 18 17 16 16 16 16 16 15 14 12 12 12 12 11 9 7 5 4 3 3 2 3 3 3 3 5 6 7 7 7 7 8 9 8 8 9 11 11 11 12 13
4 5 5 3 1 4 7 10 11 11 11 11 11 12 13 14 16 17 17 18 18 18 19 19 20 21 21 19 17 15 14 16 17 18 19 19 19 19 19 17 16 16 17 18 17 17 16 16 16 15 15 14 12 11 11 11 10 10 8 7 6 5 5 4 3 3 4 4 5 6 6 6 6 7 7 8 8 8 8 9 10 10 11 12 13
6 6 6 5 4 2 3 5 7 8 8 9 9 10 11 13 14 16 17 18 19 20 21 22 22 22 21 19 17 14 15 16 18 18 19 20 20 20 20 19 17 16 16 16 16 16 15 14 14 14 13 13 11 10 10 9 8 8 8 7 7 6 5 4 3 4 5 7 8 7 6 6 7 8 8 9 9 9 9 9 10 10 11 12 13
5 5 6 6 5 4 3 2 2 4 5 6 7 8 10 11 13 15 17 19 21 22 23 23 23 23 22 21 19 17 17 17 17 17 17 18 19 19 18 17 16 14 14 14 14 14 13 13 12 12 12 11 10 9 9 8 7 7 7 6 5 5 4 4 4 5 6 7 7 7 6 6 7 7 9 9 9 9 10 11 11 12 13 13 14
8 8 8 6 5 4 3 2 2 2 4 4 5 8 10 12 14 17 20 22 23 24 24 25 25 24 23 21 20 19 18 17 17 18 18 19 19 18 17 15 14 13 13 13 13 12 11 11 11 10 9 9 8 7 7 7 6 5 5 4 4 5 5 5 6 7 7 8 8 8 8 7 6 7 9 10 9 9 11 12 11 12 13 14 13
12 12 11 9 6 4 2 1 1 2 4 5 5 7 10 13 16 20 23 25 26 26 26 27 27 26 24 22 21 20 19 18 18 19 20 19 18 16 15 14 13 12 12 12 12 11 11 11 10 9 9 9 8 7 6 6 6 6 6 6 6 6 7 8 9 9 10 10 10 10 10 8 7 8 10 10 9 9 10 11 11 11 12 13 13
11 12 12 10 7 5 3 2 2 4 6 6 7 9 12 15 18 21 24 26 27 27 28 28 28 27 26 25 23 21 20 19 19 19 18 17 15 14 13 12 12 11 10 10 10 10 9 10 10 9 9 8 7 7 6 6 6 6 6 7 8 8 9 9 9 9 10 10 10 9 9 7 7 9 10 10 10 10 10 11 11 11 12 13 13
10 11 11 10 9 7 5 4 5 6 8 9 10 12 14 16 19 22 25 26 27 28 28 28 28 28 27 26 23 21 20 20 19 18 16 14 12 11 10 10 9 9 8 8 8 7 7 7 7 7 7 6 5 5 5 5 5 6 6 6 7 8 8 9 9 9 10 10 9 8 8 8 8 9 8 9 9 9 10 10 10 11 12 12 13
10 10 10 10 9 8 7 6 7 8 10 12 14 15 17 18 21 23 26 27 28 28 29 29 28 28 27 25 24 22 21 20 19 17 15 13 12 11 10 9 8 8 8 8 8 8 7 6 6 6 6 6 5 5 5 5 5 5 6 7 8 8 9 9 10 11 11 11 11 11 11 12 12 11 10 10 10 10 10 11 12 11 11 11 12
10 10 9 9 9 8 8 8 9 10 12 14 16 18 19 21 23 24 26 28 29 29 29 29 29 28 27 26 25 24 22 20 19 17 16 14 13 11 10 9 9 9 8 8 9 8 7 6 6 6 6 6 5 5 5 5 6 7 8 8 9 10 11 11 12 12 12 12 13 13 14 14 14 14 14 14 14 13 13 14 14 13 11 10 11
Wind_Direction
216 216 215 216 218 218 219 219 219 221 221 220 221 223 224 226 228 228 228 227 227 226 224 224 227 229 230 231 232 232 231 230 232 233 233 234 235 235 236 239 243 243 241 242 245 246 245 247 252 258 257 258 263 267 269 274 279 281 283 285 287 289 290 290 290 294 300 303 304 307 308 307 305 307 308 306 306 306 304 302 301 301 301 302 302
216 216 215 215 217 218 219 219 219 220 220 219 219 220 221 222 224 226 226 226 225 224 224 223 225 228 230 232 233 233 234 232 232 234 235 236 238 240 240 241 244 248 247 246 247 250 251 253 256 259 259 259 261 263 267 268 269 273 279 283 287 288 289 293 295 296 298 301 302 303 308 311 310 310 311 308 308 308 307 307 307 307 307 306 305
215 216 215 215 216 216 217 218 218 218 218 218 218 218 219 219 220 222 224 225 224 223 223 223 225 227 229 232 233 233 235 234 233 234 235 238 240 241 243 245 246 249 251 251 252 253 254 255 256 258 260 261 259 260 264 265 265 267 271 276 282 287 291 294 293 293 294 296 296 299 302 304 306 308 310 308 306 305 305 305 306 307 308 307 305
213 216 215 214 215 215 216 216 217 217 217 217 217 217 219 220 220 220 221 223 224 222 221 222 225 227 228 231 233 233 234 234 234 235 237 239 241 241 243 245 247 249 251 253 255 255 256 256 256 257 259 262 262 262 264 267 271 273 276 278 282 286 288 286 282 281 287 291 294 298 301 302 304 305 304 303 302 302 303 305 306 306 305 305 303
210 215 215 214 215 215 214 215 216 216 215 217 217 217 219 222 223 221 218 220 222 222 220 221 223 227 228 231 233 234 234 234 234 234 236 239 240 241 243 244 247 250 251 254 255 255 255 255 255 256 257 260 263 266 268 270 274 277 280 283 287 289 284 278 279 278 280 287 293 299 302 304 304 301 299 298 298 300 302 304 306 305 303 302 300
207 214 215 213 214 214 213 214 215 215 215 216 217 217 217 220 223 222 218 218 221 222 222 221 223 227 229 230 233 235 235 234 234 233 234 237 239 241 242 245 248 250 251 253 255 255 255 256 256 257 258 259 263 267 270 272 276 280 284 287 290 292 288 286 287 285 281 284 291 298 301 302 300 298 299 298 297 300 302 302 302 302 301 303 304
206 214 215 213 214 214 213 213 214 215 215 215 216 217 216 217 222 223 219 217 219 222 224 224 225 228 230 231 233 235 236 235 235 234 233 235 237 240 242 244 247 249 251 252 254 255 256 257 258 259 258 258 260 265 270 272 276 280 284 287 289 291 290 287 286 285 282 283 289 294 297 297 296 297 302 303 301 304 306 302 298 299 303 308 311
209 214 216 214 214 214 213 213 214 215 215 214 215 217 216 217 220 223 222 219 219 221 224 227 228 228 230 232 233 235 237 236 235 235 233 233 236 239 242 244 246 249 250 251 252 254 256 258 260 261 260 258 259 264 269 274 277 279 282 285 287 288 287 284 280 278 278 280 284 288 290 294 295 298 303 303 299 302 305 302 298 301 309 313 313
210 214 216 216 215 214 213 214 215 215 215 215 215 217 218 219 220 223 222 220 219 221 223 226 229 230 229 230 232 234 236 237 236 235 235 234 235 239 242 243 245 247 249 251 253 254 256 257 259 262 263 262 261 265 269 273 274 276 279 281 282 283 281 279 276 274 275 277 280 284 286 288 290 293 294 293 292 296 301 301 299 302 309 312 311
212 215 217 217 216 215 214 214 215 215 215 215 215 217 219 220 221 223 223 221 221 222 223 225 228 230 230 229 230 232 235 237 237 236 236 236 236 238 241 244 245 246 248 251 253 255 257 257 258 261 263 264 265 267 269 271 272 272 273 275 276 275 274 273 273 271 270 272 275 279 281 281 283 286 286 288 293 295 297 299 299 301 307 309 309
215 218 218 217 217 216 214 214 215 215 216 216 216 216 218 219 221 222 223 223 223 223 224 226 227 229 231 231 231 233 235 237 237 237 237 237 237 238 241 244 246 248 249 251 253 254 256 258 260 262 263 264 266 268 269 270 270 270 270 269 268 268 267 268 270 269 266 266 271 273 274 276 279 280 284 291 294 292 293 296 297 299 304 306 307
217 218 218 218 218 216 214 214 215 216 216 217 216 216 217 219 221 222 222 223 224 225 226 227 227 228 231 232 232 234 236 238 237 237 237 237 237 238 241 244 246 248 250 251 252 253 254 256 259 262 264 265 267 268 269 269 269 269 268 267 265 263 263 263 265 266 265 264 267 267 269 272 275 278 285 291 291 291 294 296 296 298 300 301 302
216 217 217 218 218 216 214 215 216 217 217 217 217 217 218 220 221 222 223 224 225 226 227 228 228 228 230 232 233 234 237 239 238 237 236 237 237 237 240 243 245 248 250 251 251 252 254 256 258 260 263 265 267 268 269 269 270 270 268 267 265 264 265 265 265 266 266 265 264 265 268 273 275 279 285 287 289 293 296 298 300 300 300 300 302
213 217 217 218 217 216 214 215 216 217 218 218 218 218 218 220 221 223 225 226 227 228 229 230 230 230 230 232 233 233 236 239 239 237 236 237 236 237 239 241 244 246 248 250 251 252 254 255 257 258 260 263 265 266 266 267 269 270 270 269 268 267 267 267 266 266 266 265 265 266 270 276 277 279 282 284 288 293 295 298 300 300 301 303 305
212 217 219 218 217 216 215 216 217 218 219 219 219 219 219 221 222 224 226 228 229 229 230 231 233 233 233 233 234 234 235 237 239 238 237 237 237 237 238 240 243 245 247 249 251 252 254 255 256 258 259 260 262 263 265 265 265 266 267 268 269 270 270 269 268 267 266 267 267 266 268 273 276 279 282 284 286 289 292 293 296 299 302 304 305
213 218 220 219 217 216 215 216 218 219 220 221 221 221 222 222 223 224 226 229 231 232 232 233 235 236 236 236 236 236 236 236 238 238 237 238 238 238 239 240 242 244 246 248 250 252 253 254 256 257 258 260 261 261 262 263 263 263 263 264 266 267 269 270 270 270 269 269 269 268 269 273 275 277 282 284 285 287 289 290 294 300 304 305 306
217 221 221 220 218 217 216 217 218 219 220 221 222 222 223 224 224 225 227 229 232 234 234 234 235 237 238 238 238 238 238 238 238 238 237 238 238 239 240 240 242 243 245 247 249 251 252 253 255 256 257 258 259 260 260 259 259 259 259 260 262 262 263 265 268 273 277 277 273 273 277 282 283 282 284 288 289 291 292 294 299 305 304 303 306
219 222 221 220 219 218 217 217 217 218 220 221 222 223 224 224 224 225 226 228 231 234 235 235 236 236 238 239 239 239 239 240 240 239 238 238 239 240 241 242 243 244 245 247 248 249 251 253 253 254 255 256 257 257 257 257 255 255 255 256 258 259 260 262 265 272 278 279 280 281 285 290 291 291 294 297 296 295 294 295 301 303 300 300 307
220 221 221 220 219 218 218 218 217 218 219 221 222 224 224 225 225 225 226 227 229 232 234 236 237 237 238 240 241 242 242 243 243 242 240 240 240 240 242 243 243 244 245 247 248 249 250 251 252 253 253 254 255 255 255 254 253 251 251 252 254 256 258 261 264 265 265 269 275 279 283 287 288 292 298 300 297 294 293 294 299 300 296 299 307
220 221 220 219 219 219 219 219 218 219 221 222 224 225 226 226 227 228 229 229 231 232 233 236 239 241 241 242 244 244 244 244 245 243 241 240 239 239 241 242 242 243 245 246 248 249 250 251 252 252 253 253 253 253 254 252 250 248 246 247 249 252 256 259 261 260 260 263 266 267 273 280 285 291 297 299 299 299 298 299 301 297 290 294 301
219 220 220 219 219 219 219 219 219 220 223 224 226 227 228 229 231 232 232 233 234 234 234 234 236 240 243 245 246 247 246 245 245 245 243 240 238 238 239 240 242 242 243 245 248 249 251 252 253 253 253 252 251 251 251 249 246 243 242 242 245 249 253 256 258 260 262 265 268 272 279 285 288 291 292 294 297 296 292 291 293 292 291 296 300
218 219 219 218 218 218 219 219 220 221 224 225 226 227 229 230 232 233 233 234 236 237 237 235 234 236 240 242 244 245 245 245 245 244 244 242 239 237 238 240 241 242 243 245 247 248 250 253 255 255 254 253 250 248 246 243 240 239 239 241 244 248 253 256 259 261 265 270 275 280 284 287 289 288 288 291 293 289 285 287 292 297 301 302 300
217 217 217 216 216 217 218 219 219 221 222 223 225 226 228 229 230 230 231 232 233 234 235 235 232 232 234 236 236 236 237 240 242 242 241 240 238 237 237 238 240 240 242 243 243 246 249 252 253 255 255 253 247 242 238 235 235 236 238 240 244 248 251 254 257 261 267 273 277 280 284 286 286 286 289 295 298 296 296 299 302 305 307 307 308
215 216 216 215 215 216 218 218 218 220 221 222 224 225 226 228 230 231 230 228 226 225 226 227 226 227 228 230 232 232 232 236 240 241 239 236 235 235 235 236 238 238 239 240 239 241 247 250 250 253 253 249 241 236 232 231 233 236 238 241 244 247 250 254 259 263 267 271 274 278 283 283 282 287 294 298 301 302 302 305 309 311 312 314 319
215 216 215 214 214 215 217 218 218 219 220 222 223 224 225 227 229 229 227 223 218 218 221 222 223 225 226 226 229 231 231 232 237 242 242 236 233 234 235 236 237 237 238 238 237 235 237 241 245 249 248 242 236 234 232 232 234 237 239 242 244 247 250 253 258 262 266 269 273 277 280 281 285 292 296 299 302 303 305 309 311 313 316 319 325
215 216 215 215 214 214 216 217 217 217 218 220 222 223 224 226 228 227 227 223 217 214 217 219 220 223 224 225 227 229 230 231 233 239 243 239 232 231 236 238 237 237 239 239 239 238 236 238 243 248 247 241 238 238 237 236 237 238 241 242 243 246 249 251 255 260 264 269 273 275 276 281 288 293 297 301 303 303 305 309 310 314 320 323 327
215 215 215 214 213 213 213 213 212 213 215 217 219 222 223 225 227 228 228 226 220 214 214 217 219 221 223 225 226 226 228 230 229 231 239 241 235 231 236 239 237 236 236 236 236 238 239 240 242 245 246 243 241 242 242 240 239 240 241 242 242 245 248 251 253 258 264 268 270 272 275 281 287 293 298 302 302 302 305 307 311 317 322 325 329
214 214 213 212 212 212 210 209 208 209 212 214 215 218 221 222 224 226 227 226 221 215 212 214 216 219 221 222 224 226 227 230 230 229 232 236 235 235 238 239 237 236 236 235 234 234 237 239 237 238 241 242 241 242 245 244 241 240 241 241 242 244 247 250 254 258 261 262 263 268 275 281 286 292 297 298 296 299 303 306 312 319 324 329 335
212 213 212 210 210 210 209 210 208 207 210 213 212 212 215 217 219 222 225 226 223 218 215 216 217 219 222 223 225 227 227 229 230 228 228 231 240 249 250 242 237 237 236 235 233 232 234 236 236 235 237 238 237 238 242 243 241 240 240 239 241 244 247 252 256 257 254 255 261 269 277 282 286 290 291 290 290 295 300 306 313 320 328 335 341
211 211 210 209 210 210 210 211 210 207 206 210 215 217 217 216 216 216 218 223 224 221 220 219 218 220 221 222 224 226 228 231 231 232 237 242 248 253 250 240 233 232 228 224 226 229 232 234 235 233 233 235 234 232 233 237 241 241 240 240 244 248 251 252 251 250 250 256 264 271 276 280 285 287 285 285 288 292 298 307 315 323 332 340 346
210 207 206 209 209 208 209 211 213 210 206 206 218 225 224 222 222 221 219 222 225 226 226 225 224 225 225 225 228 231 234 236 236 238 247 252 247 242 239 231 226 224 220 216 219 225 228 230 231 231 232 234 234 231 229 233 238 239 241 244 248 248 245 244 244 245 251 257 263 270 275 278 281 281 280 282 287 290 298 308 317 326 335 344 351
207 203 204 208 210 210 211 213 215 214 209 207 216 225 225 225 228 228 227 227 229 232 235 235 232 232 233 233 235 238 240 242 240 239 242 243 238 234 232 228 224 221 219 217 219 223 225 226 230 233 233 232 233 231 227 228 234 238 242 247 247 240 234 236 241 244 247 254 261 269 273 274 274 275 277 281 286 290 300 309 315 326 338 348 355
204 203 203 207 210 212 213 216 216 212 208 209 215 220 222 225 231 233 232 232 234 237 240 241 238 236 237 238 238 241 243 244 242 239 237 235 231 228 227 226 224 222 221 219 221 225 227 228 232 235 233 230 227 223 218 225 236 242 242 237 231 227 227 233 240 242 248 257 265 269 271 271 274 276 277 281 286 291 299 307 315 329 341 350 354
194 198 200 203 208 209 208 210 211 209 211 215 216 215 216 218 226 233 235 234 236 238 240 240 239 235 234 236 239 242 243 241 237 234 232 230 228 225 224 226 226 226 226 227 230 233 233 230 230 227 220 220 224 225 228 235 240 239 229 220 219 224 231 239 248 255 262 267 269 270 271 272 274 276 275 278 284 289 293 300 312 324 335 345 347
182 190 190 188 194 202 203 205 207 209 213 216 212 209 213 210 212 227 236 234 233 235 236 236 235 231 229 231 235 238 239 238 234 230 228 228 228 227 227 229 229 230 231 230 230 231 229 224 222 220 218 222 229 230 230 230 224 213 211 213 218 226 235 244 252 257 262 266 266 267 270 271 272 272 273 277 281 281 282 286 297 308 323 336 339
181 191 190 184 188 197 203 207 207 203 206 210 206 203 206 204 206 216 222 220 221 227 229 230 231 229 225 225 227 229 230 231 230 229 228 228 228 229 229 228 229 233 234 230 226 227 229 229 230 232 233 234 233 224 211 202 195 195 201 206 212 223 236 247 254 258 262 265 266 268 272 273 271 267 267 274 278 278 277 279 284 291 302 322 339
161 163 169 177 188 198 204 207 208 208 209 210 205 195 193 197 200 202 205 208 213 217 219 220 222 222 221 220 221 222 224 225 226 228 228 228 231 234 231 225 224 230 233 229 224 225 229 230 228 228 228 224 214 202 194 190 188 192 200 209 220 233 243 250 257 262 265 265 265 267 270 270 268 265 265 270 274 275 274 277 282 287 296 315 335
167 165 168 175 181 192 201 200 199 202 204 201 194 188 189 193 196 198 202 205 204 205 208 210 211 212 213 213 212 215 219 222 223 225 229 231 232 232 227 219 215 216 218 217 216 217 218 215 210 207 204 198 192 188 188 188 190 197 211 223 233 241 246 251 255 256 257 260 263 267 269 270 270 269 266 267 272 276 279 281 286 290 295 305 315
144 172 181 182 181 185 190 187 183 186 191 191 192 195 197 197 195 195 196 195 193 196 202 205 205 205 205 205 207 211 215 218 218 218 221 222 219 217 218 214 206 199 199 204 208 209 206 202 197 193 189 186 184 187 191 197 203 212 221 229 235 238 242 246 247 247 249 256 264 268 271 271 269 267 268 268 269 273 276 277 281 285 287 289 292
64 134 165 172 176 181 182 180 179 183 188 189 190 193 197 198 196 194 193 193 194 197 198 197 197 197 195 196 199 200 203 211 213 207 204 205 205 206 207 202 189 182 183 189 192 190 187 185 183 182 182 184 188 193 199 205 212 216 221 227 231 232 234 239 243 246 252 262 270 274 278 276 271 270 272 270 265 267 274 277 276 277 280 283 287
44 86 138 152 162 169 174 176 179 184 187 187 187 190 193 195 197 197 198 200 203 204 202 198 197 195 192 192 193 195 199 205 207 202 198 198 199 200 199 194 184 177 177 179 182 181 179 178 179 182 186 189 192 195 198 203 209 212 216 222 224 224 228 235 241 248 255 265 276 277 272 270 272 272 269 264 264 271 283 285 277 275 278 282 285
46 39 72 139 157 158 160 165 170 179 187 190 192 195 197 199 203 206 207 207 207 206 203 199 198 197 193 191 194 200 202 198 191 186 186 187 189 192 194 192 185 178 175 176 177 177 177 179 180 182 185 187 188 190 193 199 204 205 205 207 208 201 193 199 225 251 256 261 269 263 257 261 272 281 281 279 279 281 278 272 269 268 270 274 278
19 29 27 27 112 149 158 163 168 176 184 191 197 201 204 207 210 212 212 210 207 204 202 200 198 194 188 183 185 194 196 188 181 178 178 178 178 180 182 182 178 175 175 175 176 176 178 179 179 179 181 183 185 187 190 194 198 199 200 203 207 210 209 208 224 251 251 244 250 259 263 268 276 283 284 281 280 278 272 268 269 269 267 269 274
10 17 14 12 16 42 124 153 166 173 178 187 200 206 209 210 208 207 206 205 202 199 198 194 189 183 177 172 174 182 186 182 178 175 174 173 172 172 173 173 172 171 171 171 171 173 175 176 176 178 179 180 181 183 185 187 191 196 200 204 210 219 224 220 224 240 246 246 250 258 269 275 278 282 283 280 279 280 279 277 275 273 271 271 272
0 360 357 3 7 15 43 89 146 164 168 182 202 209 209 204 198 193 192 190 188 186 183 179 175 172 170 169 173 178 179 175 172 171 171 170 169 169 169 168 168 168 166 162 163 166 168 169 171 173 176 178 180 183 186 190 194 199 202 201 202 210 220 225 233 241 246 248 252 255 259 265 272 277 278 278 281 283 281 280 279 279 279 277 275
334 337 338 343 350 1 30 63 110 151 165 186 212 218 211 198 188 182 180 178 178 177 174 170 168 169 171 172 174 175 172 169 168 167 167 167 167 167 167 167 168 167 163 160 160 161 163 165 166 168 172 175 176 179 186 192 194 194 195 196 199 210 223 231 236 240 242 245 251 254 252 256 269 278 279 280 281 281 280 281 282 282 283 283 282
325 326 325 326 327 333 352 28 122 170 177 189 214 227 218 202 190 183 179 175 175 175 173 172 172 172 172 172 172 171 169 168 167 165 163 163 162 161 160 159 159 159 159 160 160 160 162 165 167 169 171 171 170 172 178 185 185 185 190 204 215 225 234 237 238 241 244 246 250 252 253 259 273 282 282 284 286 283 281 283 284 283 284 286 287
311 315 317 316 312 310 311 291 245 216 203 200 210 218 215 204 194 187 183 180 179 177 176 176 176 173 171 170 170 170 168 165 162 160 159 158 156 155 153 152 151 152 156 161 164 167 170 173 173 172 169 165 164 166 171 180 189 195 205 218 226 231 237 241 243 248 251 254 257 261 265 272 279 278 278 282 286 286 286 287 287 286 284 285 286
294 300 305 302 294 287 280 264 243 227 216 210 208 208 208 204 197 191 188 186 185 183 181 180 178 175 173 171 170 171 170 166 163 161 159 157 155 153 151 150 149 149 152 157 160 163 165 164 162 162 161 161 167 178 188 197 209 218 227 235 239 241 243 247 251 254 257 261 265 268 269 272 274 278 285 289 290 292 294 291 288 289 291 290 288
283 287 291 289 279 269 261 251 239 228 219 213 206 202 201 201 198 194 191 189 187 185 182 180 179 178 177 174 173 173 173 171 169 168 165 163 160 156 152 151 150 147 148 153 157 157 157 157 159 164 173 184 196 206 216 227 237 245 250 254 258 260 260 259 260 260 262 265 268 268 268 268 267 268 271 272 273 276 280 279 279 284 291 293 291
277 277 276 273 266 255 247 240 233 227 220 213 206 200 196 195 195 193 191 188 185 182 180 178 178 178 177 175 173 172 171 170 168 168 167 166 163 158 155 154 152 150 153 159 162 162 163 172 180 185 193 204 213 222 238 253 258 259 261 263 266 269 269 267 267 266 266 267 268 268 268 270 270 268 269 269 270 271 272 272 274 278 281 283 289
Height
1522 1525 1529 1532 1535 1538 1541 1543 1546 1549 1552 1555 1557 1559 1562 1563 1566 1568 1570 1572 1574 1576 1578 1580 1581 1583 1585 1586 1587 1589 1590 1591 1592 1593 1594 1595 1596 1597 1598 1598 1599 1599 1600 1601 1602 1602 1603 1603 1603 1604 1604 1605 1605 1605 1605 1605 1605 1605 1605 1605 1605 1605 1605 1605 1603 1602 1602 1602 1602 1601 1601 1601 1600 1599 1597 1596 1595 1594 1592 1591 1590 1590 1589 1587 1586
1517 1521 1525 1528 1531 1534 1538 1540 1543 1546 1549 1552 1554 1556 1559 1560 1563 1565 1567 1569 1571 1573 1575 1577 1579 1580 1582 1583 1584 1586 1587 1588 1590 1590 1591 1592 1593 1594 1595 1596 1597 1597 1598 1599 1600 1601 1601 1601 1602 1602 1602 1603 1603 1604 1604 1604 1604 1604 1604 1603 1603 1604 1603 1603 1602 1600 1600 1600 1600 1599 1598 1598 1597 1596 1595 1593 1592 1591 1590 1588 1587 1586 1585 1584 1582
1513 1517 1521 1524 1527 1531 1534 1537 1540 1543 1546 1548 1551 1553 1556 1558 1560 1562 1564 1566 1568 1570 1572 1574 1576 1577 1579 1580 1582 1583 1584 1586 1587 1588 1589 1590 1591 1592 1593 1594 1594 1595 1596 1597 1598 1599 1599 1599 1600 1600 1600 1601 1601 1602 1602 1602 1602 1602 1602 1602 1602 1602 1602 1601 1600 1599 1598 1597 1598 1597 1597 1596 1594 1593 1592 1590 1589 1588 1587 1586 1585 1583 1582 1580 1579
1510 1513 1516 1520 1524 1527 1531 1534 1537 1540 1542 1545 1548 1551 1553 1555 1557 1559 1561 1563 1565 1567 1569 1571 1573 1574 1576 1577 1578 1580 1582 1583 1584 1585 1586 1587 1588 1590 1591 1591 1592 1593 1594 1595 1595 1596 1597 1597 1598 1598 1598 1598 1599 1600 1600 1600 1600 1600 1600 1600 1600 1600 1600 1599 1598 1597 1596 1595 1595 1595 1594 1594 1593 1591 1589 1587 1585 1584 1583 1582 1582 1580 1579 1578 1576
1506 1508 1512 1517 1520 1524 1527 1530 1533 1536 1539 1542 1544 1548 1550 1552 1554 1556 1559 1561 1562 1564 1566 1568 1570 1571 1573 1574 1576 1577 1579 1580 1581 1583 1584 1585 1586 1587 1588 1589 1590 1591 1592 1592 1593 1594 1595 1595 1596 1596 1596 1597 1597 1597 1598 1598 1598 1598 1598 1598 1598 1598 1597 1597 1596 1595 1594 1593 1593 1592 1592 1591 1589 1588 1586 1584 1582 1581 1580 1579 1578 1577 1576 1574 1573
1502 1504 1509 1513 1516 1520 1523 1526 1529 1532 1535 1538 1541 1545 1547 1549 1551 1553 1556 1558 1559 1561 1563 1565 1566 1568 1569 1571 1573 1574 1576 1577 1578 1580 1581 1582 1583 1584 1585 1586 1588 1588 1589 1590 1591 1591 1592 1593 1593 1594 1594 1594 1595 1595 1595 1595 1595 1595 1596 1596 1596 1595 1595 1594 1594 1593 1593 1592 1591 1590 1590 1589 1587 1585 1583 1581 1579 1577 1576 1576 1574 1573 1571 1570 1569
1498 1500 1504 1509 1512 1515 1519 1522 1525 1528 1532 1535 1538 1541 1544 1546 1548 1550 1553 1555 1556 1558 1560 1561 1563 1565 1566 1568 1570 1571 1573 1574 1575 1577 1578 1579 1580 1582 1583 1584 1585 1586 1587 1588 1588 1589 1590 1590 1591 1591 1592 1592 1593 1593 1593 1593 1593 1593 1593 1593 1593 1593 1592 1592 1592 1591 1591 1590 1589 1589 1589 1587 1585 1582 1580 1578 1576 1574 1573 1573 1571 1569 1568 1566 1565
1493 1496 1500 1504 1507 1511 1515 1518 1522 1525 1528 1532 1535 1538 1540 1543 1545 1547 1549 1551 1553 1555 1557 1558 1560 1561 1563 1565 1567 1568 1569 1570 1572 1573 1575 1577 1578 1579 1580 1581 1582 1583 1584 1585 1586 1587 1587 1588 1588 1588 1589 1589 1590 1591 1591 1591 1591 1591 1591 1591 1590 1590 1590 1590 1589 1589 1589 1588 1588 1588 1587 1586 1583 1581 1578 1576 1573 1572 1572 1572 1569 1566 1564 1563 1562
1488 1492 1496 1500 1503 1507 1511 1515 1518 1522 1525 1528 1531 1534 1537 1539 1542 1544 1546 1548 1550 1552 1554 1555 1557 1558 1560 1562 1563 1565 1566 1567 1568 1570 1572 1573 1575 1576 1577 1579 1580 1581 1581 1582 1583 1584 1584 1585 1586 1586 1586 1587 1587 1588 1588 1588 1588 1588 1588 1588 1588 1587 1587 1587 1587 1587 1587 1586 1586 1586 1586 1584 1582 1580 1577 1574 1572 1571 1572 1571 1568 1565 1562 1559 1558
1484 1488 1491 1495 1499 1503 1507 1511 1515 1518 1521 1524 1528 1531 1534 1536 1539 1541 1543 1545 1547 1549 1551 1552 1553 1555 1557 1558 1560 1561 1562 1563 1565 1567 1569 1570 1572 1574 1574 1576 1577 1578 1579 1579 1580 1581 1582 1582 1583 1583 1584 1584 1584 1585 1585 1585 1585 1586 1586 1585 1585 1584 1584 1584 1584 1584 1584 1584 1584 1585 1584 1582 1581 1579 1575 1572 1570 1569 1570 1570 1568 1564 1560 1555 1553
1479 1483 1487 1491 1495 1499 1503 1508 1511 1514 1518 1520 1524 1527 1530 1533 1535 1537 1539 1542 1544 1546 1547 1549 1550 1552 1553 1555 1556 1557 1558 1560 1562 1564 1566 1567 1569 1571 1572 1573 1574 1575 1576 1576 1577 1578 1579 1579 1580 1580 1580 1581 1581 1582 1582 1582 1582 1582 1583 1583 1582 1582 1581 1581 1581 1581 1582 1582 1582 1582 1582 1580 1579 1577 1573 1570 1568 1566 1566 1567 1566 1563 1560 1554 1549
1475 1480 1484 1488 1492 1495 1500 1504 1507 1511 1514 1517 1520 1524 1526 1529 1531 1533 1536 1538 1540 1542 1544 1545 1547 1549 1550 1551 1552 1554 1555 1557 1559 1561 1563 1564 1566 1568 1569 1570 1570 1571 1572 1573 1574 1575 1575 1576 1577 1577 1577 1578 1578 1579 1579 1579 1579 1579 1579 1579 1578 1578 1578 1578 1578 1578 1578 1578 1578 1579 1578 1577 1576 1574 1572 1569 1566 1563 1562 1562 1563 1562 1559 1555 1548
1472 1476 1481 1484 1488 1492 1496 1500 1503 1507 1510 1513 1517 1520 1523 1525 1527 1529 1532 1534 1536 1538 1540 1541 1543 1545 1547 1548 1549 1550 1552 1553 1555 1558 1559 1561 1563 1565 1566 1566 1567 1568 1569 1569 1570 1571 1572 1572 1573 1573 1574 1574 1575 1575 1575 1575 1575 1575 1575 1575 1574 1574 1574 1574 1574 1574 1575 1575 1574 1574 1574 1574 1573 1572 1570 1568 1565 1562 1558 1557 1558 1557 1555 1553 1549
1469 1473 1477 1480 1484 1488 1492 1496 1499 1503 1506 1510 1513 1516 1518 1521 1523 1526 1529 1531 1532 1534 1536 1538 1539 1541 1543 1544 1545 1547 1548 1549 1551 1554 1556 1558 1560 1561 1562 1563 1564 1564 1565 1566 1566 1567 1568 1569 1569 1570 1570 1571 1571 1572 1572 1572 1572 1571 1571 1571 1570 1571 1571 1571 1571 1571 1571 1571 1570 1571 1571 1571 1570 1569 1568 1567 1564 1562 1558 1554 1553 1553 1550 1550 1547
1466 1469 1473 1477 1480 1484 1488 1492 1495 1499 1502 1506 1509 1512 1514 1517 1520 1522 1525 1526 1528 1530 1532 1534 1536 1537 1539 1540 1542 1543 1544 1545 1547 1549 1552 1554 1556 1558 1559 1559 1560 1560 1561 1562 1562 1563 1564 1565 1565 1566 1567 1567 1568 1568 1569 1569 1569 1569 1568 1567 1567 1567 1567 1568 1568 1568 1568 1568 1567 1568 1568 1568 1567 1566 1566 1565 1563 1561 1558 1554 1552 1550 1547 1545 1543
1463 1466 1470 1473 1477 1480 1484 1488 1491 1495 1498 1502 1504 1507 1510 1513 1516 1518 1521 1523 1524 1526 1528 1530 1532 1533 1535 1537 1538 1539 1540 1542 1543 1545 1547 1550 1552 1553 1554 1555 1555 1556 1557 1558 1558 1559 1560 1560 1561 1562 1562 1563 1564 1564 1565 1566 1566 1565 1565 1564 1564 1565 1564 1565 1565 1565 1565 1565 1565 1565 1565 1565 1564 1563 1563 1563 1561 1560 1557 1553 1551 1549 1545 1541 1539
1459 1462 1466 1470 1473 1477 1480 1484 1488 1491 1495 1498 1500 1503 1506 1509 1512 1514 1517 1519 1521 1522 1524 1526 1528 1530 1531 1532 1534 1535 1536 1538 1539 1541 1543 1545 1547 1548 1549 1550 1551 1552 1553 1554 1554 1555 1555 1556 1557 1557 1558 1559 1560 1561 1562 1562 1562 1562 1561 1561 1561 1561 1562 1562 1562 1562 1562 1562 1563 1563 1562 1562 1561 1560 1560 1559 1558 1557 1554 1551 1550 1548 1544 1540 1537
1455 1458 1462 1466 1470 1473 1477 1481 1484 1488 1491 1494 1496 1499 1502 1505 1508 1510 1513 1515 1517 1519 1521 1522 1524 1525 1527 1528 1529 1531 1533 1534 1535 1537 1539 1541 1542 1544 1545 1545 1546 1547 1548 1549 1550 1550 1551 1552 1553 1553 1554 1555 1556 1557 1558 1558 1559 1558 1558 1558 1558 1558 1559 1560 1560 1560 1560 1559 1560 1559 1559 1558 1558 1557 1556 1556 1555 1554 1551 1549 1548 1546 1543 1540 1536
1451 1455 1459 1463 1467 1471 1474 1477 1481 1484 1487 1490 1493 1496 1499 1502 1504 1507 1509 1511 1514 1515 1517 1518 1519 1521 1522 1524 1525 1527 1529 1530 1531 1532 1535 1536 1538 1540 1540 1541 1541 1542 1544 1544 1545 1546 1547 1547 1548 1549 1550 1552 1553 1553 1554 1555 1555 1555 1555 1555 1555 1555 1556 1557 1558 1558 1558 1557 1557 1557 1556 1556 1555 1553 1553 1552 1551 1550 1549 1547 1546 1544 1541 1538 1536
1448 1453 1457 1461 1464 1468 1471 1474 1478 1481 1484 1487 1490 1493 1496 1499 1501 1503 1505 1507 1510 1512 1513 1514 1516 1517 1518 1520 1521 1522 1524 1526 1526 1527 1530 1532 1534 1535 1536 1536 1536 1538 1539 1540 1541 1541 1542 1543 1544 1545 1546 1548 1549 1549 1550 1551 1551 1551 1552 1552 1552 1552 1554 1555 1555 1554 1554 1554 1554 1553 1553 1553 1552 1551 1550 1549 1549 1548 1546 1544 1543 1542 1539 1536 1535
1447 1451 1454 1458 1462 1465 1468 1472 1475 1478 1481 1484 1488 1490 1493 1496 1498 1500 1502 1504 1506 1508 1510 1511 1512 1514 1515 1516 1518 1518 1520 1521 1522 1523 1525 1527 1529 1530 1531 1530 1532 1534 1535 1536 1536 1537 1538 1539 1540 1541 1543 1545 1546 1546 1546 1547 1548 1548 1548 1548 1549 1550 1550 1551 1551 1550 1550 1550 1550 1550 1550 1550 1549 1549 1548 1548 1547 1546 1545 1543 1541 1539 1538 1535 1533
1445 1448 1452 1456 1459 1462 1466 1469 1472 1476 1479 1481 1485 1487 1490 1493 1495 1497 1499 1501 1503 1504 1506 1508 1510 1511 1512 1513 1514 1515 1515 1517 1517 1518 1519 1521 1524 1525 1525 1526 1528 1530 1531 1532 1533 1534 1535 1536 1537 1537 1539 1541 1542 1543 1543 1544 1544 1544 1544 1545 1546 1547 1547 1547 1547 1547 1546 1547 1547 1546 1547 1547 1546 1546 1546 1545 1544 1543 1542 1540 1539 1537 1535 1533 1532
1442 1446 1449 1453 1456 1460 1463 1466 1469 1472 1475 1478 1481 1484 1486 1489 1491 1493 1496 1498 1500 1502 1503 1505 1506 1508 1509 1510 1511 1511 1512 1512 1513 1513 1514 1516 1518 1520 1521 1523 1524 1526 1528 1529 1530 1532 1532 1533 1534 1534 1535 1537 1539 1539 1540 1540 1540 1540 1541 1542 1543 1543 1543 1543 1543 1544 1544 1544 1544 1544 1544 1544 1543 1543 1542 1541 1540 1539 1538 1536 1535 1534 1532 1530 1528
1440 1444 1447 1450 1454 1457 1460 1463 1466 1469 1472 1475 1478 1480 1483 1486 1488 1490 1493 1495 1497 1499 1500 1502 1503 1504 1506 1507 1507 1508 1509 1509 1509 1509 1510 1512 1514 1516 1518 1520 1521 1523 1524 1525 1528 1530 1531 1532 1532 1532 1532 1534 1535 1536 1536 1536 1536 1537 1538 1539 1540 1540 1540 1541 1541 1541 1541 1541 1541 1541 1541 1540 1540 1539 1539 1538 1536 1535 1534 1532 1531 1530 1529 1527 1525
1438 1442 1445 1448 1451 1455 1458 1461 1464 1467 1470 1472 1475 1477 1480 1482 1484 1487 1489 1492 1494 1495 1497 1498 1499 1501 1502 1503 1504 1505 1506 1507 1507 1507 1507 1509 1511 1513 1515 1517 1518 1520 1521 1522 1524 1527 1528 1529 1529 1529 1529 1531 1532 1532 1532 1533 1533 1534 1535 1536 1537 1537 1538 1538 1539 1538 1538 1538 1538 1538 1538 1537 1536 1536 1535 1534 1533 1532 1530 1529 1528 1527 1526 1524 1522
1436 1440 1443 1446 1450 1453 1456 1459 1462 1464 1467 1470 1472 1475 1477 1479 1481 1484 1486 1488 1490 1492 1493 1495 1496 1497 1499 1500 1501 1503 1504 1505 1506 1506 1506 1506 1508 1510 1512 1514 1515 1517 1518 1519 1521 1522 1524 1525 1525 1526 1526 1528 1528 1529 1529 1529 1530 1531 1532 1532 1533 1534 1534 1535 1535 1535 1535 1536 1535 1535 1535 1534 1533 1532 1532 1531 1530 1529 1527 1526 1525 1524 1523 1521 1519
1436 1439 1442 1445 1448 1451 1454 1457 1459 1462 1464 1467 1469 1472 1474 1476 1478 1480 1482 1484 1486 1488 1490 1492 1493 1495 1496 1497 1498 1499 1501 1502 1503 1504 1504 1504 1505 1507 1509 1510 1512 1513 1514 1515 1517 1519 1520 1521 1522 1522 1523 1524 1525 1525 1525 1526 1527 1527 1528 1528 1529 1530 1530 1531 1532 1532 1532 1533 1532 1532 1532 1531 1531 1530 1529 1528 1527 1526 1525 1524 1523 1522 1520 1518 1516
1435 1438 1441 1444 1447 1449 1452 1455 1457 1459 1462 1464 1467 1469 1471 1473 1475 1476 1478 1480 1482 1484 1486 1488 1489 1491 1492 1494 1495 1496 1497 1499 1499 1501 1502 1502 1503 1504 1506 1507 1509 1509 1511 1512 1514 1516 1516 1517 1518 1519 1520 1520 1521 1522 1522 1522 1523 1523 1524 1525 1525 1526 1527 1528 1528 1529 1529 1529 1529 1529 1529 1528 1528 1527 1526 1525 1524 1523 1522 1521 1521 1520 1518 1516 1513
1434 1437 1440 1443 1445 1448 1450 1453 1455 1458 1460 1462 1464 1466 1468 1469 1471 1473 1475 1477 1479 1481 1483 1484 1486 1487 1489 1491 1492 1493 1495 1496 1497 1498 1499 1500 1501 1501 1502 1504 1505 1506 1508 1510 1511 1512 1512 1513 1514 1515 1515 1516 1517 1518 1518 1518 1519 1520 1521 1521 1522 1523 1523 1524 1524 1525 1525 1526 1526 1526 1526 1526 1525 1525 1524 1523 1522 1521 1520 1519 1519 1518 1516 1514 1512
1433 1436 1439 1441 1444 1446 1448 1451 1453 1456 1458 1460 1462 1463 1464 1466 1468 1471 1473 1474 1475 1477 1479 1481 1483 1484 1486 1488 1489 1491 1492 1493 1494 1495 1496 1497 1498 1498 1499 1500 1501 1502 1504 1506 1507 1508 1508 1509 1510 1511 1511 1511 1512 1513 1514 1514 1515 1516 1517 1518 1519 1519 1520 1520 1521 1521 1522 1523 1523 1523 1523 1523 1523 1522 1522 1521 1520 1519 1517 1516 1516 1516 1514 1512 1511
1432 1435 1437 1440 1441 1443 1447 1449 1451 1453 1456 1459 1460 1460 1462 1464 1466 1468 1469 1471 1472 1474 1476 1477 1479 1481 1483 1485 1486 1488 1489 1489 1491 1492 1493 1494 1495 1495 1495 1496 1497 1499 1500 1502 1503 1503 1504 1505 1506 1506 1507 1508 1509 1510 1510 1511 1512 1512 1513 1515 1516 1516 1517 1518 1518 1519 1519 1520 1520 1520 1520 1520 1520 1520 1520 1519 1518 1517 1516 1514 1514 1514 1513 1511 1509
1431 1434 1436 1438 1439 1441 1444 1447 1448 1450 1454 1456 1457 1457 1459 1461 1463 1464 1466 1468 1469 1471 1473 1474 1476 1477 1479 1481 1483 1484 1485 1486 1488 1489 1489 1490 1491 1492 1493 1494 1495 1496 1497 1498 1499 1500 1501 1502 1502 1503 1504 1505 1506 1507 1508 1509 1509 1510 1511 1512 1513 1514 1515 1515 1516 1517 1517 1517 1518 1518 1518 1518 1518 1517 1517 1517 1516 1516 1515 1513 1512 1512 1511 1509 1508
1430 1433 1435 1436 1438 1440 1443 1445 1446 1449 1451 1453 1454 1455 1457 1458 1459 1461 1463 1465 1466 1468 1469 1471 1473 1474 1475 1477 1479 1481 1482 1484 1485 1486 1487 1488 1489 1490 1491 1492 1493 1494 1495 1496 1497 1498 1499 1500 1501 1502 1503 1504 1504 1505 1506 1506 1506 1507 1508 1509 1510 1512 1512 1513 1514 1515 1515 1515 1516 1516 1515 1516 1515 1515 1515 1515 1514 1514 1513 1512 1511 1510 1509 1508 1506
1430 1432 1434 1435 1437 1440 1442 1443 1445 1447 1448 1450 1451 1452 1454 1456 1457 1458 1459 1461 1463 1465 1466 1467 1469 1470 1471 1473 1475 1477 1478 1480 1482 1483 1484 1485 1486 1487 1488 1489 1491 1492 1494 1495 1496 1497 1497 1498 1499 1500 1501 1501 1501 1502 1503 1503 1504 1505 1506 1507 1509 1510 1510 1510 1512 1513 1513 1513 1514 1514 1513 1513 1513 1512 1513 1513 1513 1513 1512 1511 1510 1509 1507 1506 1505
1429 1431 1433 1435 1437 1439 1441 1442 1443 1444 1445 1446 1448 1450 1451 1453 1455 1456 1456 1458 1460 1461 1463 1464 1466 1466 1468 1469 1472 1474 1475 1477 1478 1480 1481 1482 1484 1485 1486 1487 1488 1490 1491 1492 1493 1494 1494 1494 1495 1496 1497 1497 1497 1498 1499 1500 1502 1502 1503 1505 1507 1508 1508 1508 1509 1510 1510 1511 1511 1511 1511 1511 1511 1510 1511 1511 1511 1511 1510 1509 1508 1507 1506 1505 1504
1431 1432 1434 1436 1438 1439 1439 1440 1440 1441 1442 1443 1445 1447 1449 1451 1453 1454 1454 1455 1457 1458 1460 1461 1462 1463 1465 1467 1469 1471 1472 1474 1475 1477 1478 1480 1481 1482 1483 1484 1485 1486 1486 1486 1486 1488 1489 1489 1490 1491 1491 1493 1494 1495 1496 1497 1499 1499 1501 1502 1503 1504 1505 1506 1506 1507 1508 1508 1508 1508 1509 1509 1509 1509 1510 1510 1510 1510 1509 1508 1507 1506 1505 1504 1503
1431 1432 1433 1435 1436 1437 1438 1438 1438 1439 1440 1441 1443 1445 1447 1449 1450 1451 1452 1453 1454 1455 1457 1458 1459 1461 1463 1464 1466 1468 1469 1471 1473 1474 1476 1477 1478 1480 1480 1480 1480 1481 1480 1480 1482 1484 1485 1485 1486 1487 1489 1490 1492 1492 1493 1495 1496 1497 1498 1500 1501 1501 1503 1503 1503 1504 1505 1506 1506 1506 1507 1508 1508 1508 1508 1509 1509 1509 1508 1506 1506 1505 1504 1503 1503
1429 1429 1430 1432 1434 1435 1436 1436 1437 1438 1439 1440 1442 1443 1445 1446 1447 1448 1449 1451 1452 1454 1455 1456 1457 1459 1460 1462 1464 1465 1467 1469 1470 1471 1473 1474 1476 1477 1477 1476 1476 1477 1478 1480 1481 1482 1482 1483 1484 1486 1487 1488 1489 1490 1491 1492 1493 1495 1497 1498 1499 1499 1500 1500 1501 1502 1503 1503 1504 1504 1505 1506 1506 1506 1507 1507 1507 1507 1506 1505 1505 1504 1504 1503 1502
1429 1428 1430 1432 1434 1434 1434 1435 1436 1437 1439 1440 1441 1442 1443 1444 1445 1446 1447 1449 1450 1451 1452 1454 1455 1457 1458 1460 1462 1463 1465 1466 1467 1469 1470 1472 1473 1474 1474 1474 1474 1476 1478 1479 1480 1481 1482 1482 1483 1484 1486 1487 1488 1489 1490 1491 1492 1494 1495 1496 1497 1497 1498 1498 1499 1499 1500 1501 1502 1502 1503 1504 1505 1505 1505 1505 1505 1505 1505 1504 1503 1503 1503 1502 1501
1431 1431 1432 1433 1434 1434 1434 1434 1435 1436 1437 1439 1440 1441 1442 1443 1444 1445 1445 1446 1448 1449 1450 1452 1454 1455 1457 1459 1460 1462 1463 1464 1465 1467 1468 1468 1470 1471 1471 1471 1473 1475 1476 1478 1479 1479 1480 1481 1482 1483 1484 1486 1487 1488 1489 1490 1491 1492 1494 1495 1495 1495 1496 1496 1497 1497 1497 1498 1499 1501 1502 1502 1503 1503 1503 1503 1503 1503 1502 1502 1501 1501 1501 1500 1500
1436 1435 1434 1434 1434 1433 1433 1433 1434 1435 1436 1438 1439 1440 1441 1442 1443 1443 1444 1445 1446 1447 1449 1450 1452 1454 1456 1457 1459 1461 1462 1462 1463 1464 1466 1467 1468 1469 1469 1470 1471 1473 1475 1476 1477 1478 1479 1480 1481 1482 1484 1486 1487 1487 1488 1488 1489 1490 1492 1493 1494 1495 1495 1495 1495 1495 1496 1497 1498 1499 1500 1501 1501 1501 1501 1501 1501 1500 1499 1499 1500 1499 1499 1499 1498
1439 1438 1436 1435 1434 1433 1432 1432 1433 1434 1435 1436 1438 1439 1440 1441 1442 1443 1443 1444 1445 1446 1448 1449 1451 1453 1454 1456 1458 1459 1460 1460 1462 1463 1465 1466 1467 1468 1469 1470 1471 1472 1473 1474 1475 1476 1478 1479 1480 1482 1483 1485 1486 1486 1486 1487 1487 1488 1490 1491 1493 1494 1494 1494 1493 1494 1494 1496 1497 1498 1499 1500 1500 1500 1499 1499 1498 1498 1498 1498 1498 1497 1497 1497 1496
1439 1438 1437 1436 1435 1433 1432 1432 1432 1433 1434 1436 1437 1438 1440 1441 1442 1442 1443 1443 1444 1445 1446 1448 1450 1452 1454 1455 1457 1459 1460 1461 1461 1462 1464 1465 1467 1468 1469 1470 1471 1472 1473 1473 1474 1476 1477 1478 1479 1481 1482 1483 1484 1484 1485 1486 1487 1488 1489 1490 1490 1491 1491 1491 1492 1493 1494 1495 1496 1497 1498 1498 1498 1498 1498 1497 1496 1496 1496 1495 1495 1495 1495 1494 1494
1440 1439 1438 1437 1436 1435 1434 1433 1433 1434 1435 1436 1437 1438 1439 1440 1441 1442 1443 1444 1444 1444 1446 1447 1449 1451 1453 1455 1457 1459 1460 1461 1462 1463 1464 1465 1467 1468 1469 1470 1471 1472 1473 1474 1475 1476 1477 1478 1479 1480 1482 1483 1484 1484 1485 1486 1486 1487 1487 1488 1488 1489 1489 1490 1491 1492 1493 1494 1495 1496 1497 1497 1497 1496 1496 1496 1495 1495 1494 1494 1493 1493 1492 1492 1491
1440 1439 1438 1437 1436 1435 1435 1435 1435 1435 1436 1437 1438 1439 1440 1441 1441 1442 1443 1444 1445 1445 1446 1448 1449 1451 1453 1455 1457 1458 1460 1462 1463 1465 1466 1467 1468 1469 1470 1471 1472 1473 1474 1474 1475 1476 1477 1479 1480 1481 1482 1483 1484 1485 1485 1486 1486 1486 1486 1487 1487 1488 1489 1490 1491 1491 1492 1493 1493 1494 1494 1495 1495 1495 1495 1494 1494 1493 1493 1492 1492 1491 1490 1490 1489
1439 1439 1438 1438 1437 1436 1436 1436 1436 1437 1437 1438 1439 1440 1441 1442 1442 1444 1445 1446 1446 1447 1448 1449 1450 1452 1453 1455 1457 1459 1461 1463 1464 1465 1466 1468 1469 1470 1471 1472 1473 1474 1474 1475 1476 1477 1479 1480 1481 1481 1482 1483 1484 1485 1485 1485 1485 1485 1486 1486 1487 1488 1489 1490 1490 1491 1491 1491 1492 1492 1492 1492 1493 1493 1493 1492 1492 1491 1491 1491 1490 1489 1488 1487 1486
1438 1438 1438 1438 1437 1436 1436 1436 1437 1437 1438 1439 1440 1440 1441 1443 1444 1445 1446 1447 1448 1449 1449 1450 1451 1453 1454 1456 1458 1460 1461 1463 1464 1466 1467 1468 1469 1470 1471 1472 1473 1474 1475 1476 1477 1478 1479 1480 1480 1481 1482 1483 1483 1484 1484 1485 1485 1485 1486 1486 1487 1488 1488 1489 1489 1490 1490 1490 1490 1490 1490 1490 1491 1492 1491 1491 1490 1489 1489 1488 1488 1487 1486 1486 1485
1439 1438 1438 1438 1438 1438 1437 1437 1438 1438 1438 1439 1440 1441 1442 1443 1444 1446 1447 1448 1449 1450 1450 1451 1452 1453 1455 1457 1458 1460 1461 1463 1465 1466 1467 1468 1469 1470 1471 1472 1473 1474 1475 1476 1478 1479 1479 1480 1480 1481 1482 1482 1483 1484 1485 1485 1485 1486 1486 1486 1487 1487 1487 1488 1488 1488 1488 1488 1488 1488 1488 1489 1489 1489 1489 1488 1487 1487 1486 1486 1485 1485 1484 1483 1483
1439 1438 1438 1438 1438 1438 1438 1438 1438 1439 1439 1439 1440 1440 1442 1443 1445 1446 1448 1449 1450 1451 1452 1452 1453 1454 1455 1457 1458 1460 1461 1463 1465 1466 1467 1468 1469 1470 1471 1472 1473 1474 1475 1476 1477 1478 1479 1480 1480 1481 1482 1483 1484 1484 1484 1484 1485 1485 1485 1485 1485 1486 1486 1486 1486 1486 1486 1486 1486 1487 1487 1487 1486 1486 1486 1486 1485 1484 1484 1484 1483 1482 1481 1481 1480
1439 1438 1438 1439 1439 1439 1439 1439 1439 1439 1440 1440 1440 1440 1441 1443 1444 1446 1448 1449 1451 1452 1453 1453 1454 1455 1456 1457 1459 1460 1462 1463 1464 1466 1467 1469 1470 1471 1472 1473 1473 1474 1475 1476 1476 1477 1478 1479 1480 1481 1481 1482 1483 1483 1483 1483 1484 1484 1484 1484 1484 1484 1485 1484 1484 1484 1484 1484 1484 1484 1484 1483 1483 1483 1482 1482 1482 1481 1481 1480 1479 1479 1479 1479 1478
1439 1438 1438 1438 1439 1440 1439 1439 1439 1439 1440 1441 1441 1441 1441 1442 1444 1445 1448 1449 1451 1452 1453 1454 1455 1456 1457 1458 1459 1460 1461 1463 1464 1466 1467 1468 1469 1470 1471 1473 1474 1475 1475 1476 1477 1477 1478 1479 1480 1480 1481 1481 1481 1482 1482 1482 1482 1482 1482 1483 1483 1483 1483 1483 1482 1482 1482 1481 1481 1481 1480 1480 1479 1479 1479 1478 1478 1478 1477 1477 1476 1476 1476 1476 1476